Terug naar catalogus

STARLINK-35356

ActiefCommunicatieVLEO
NORAD 65836·PAYLOAD·🇺🇸 United States

Gelanceerd Sep 29, 2025 vanaf Vandenberg Space Force Base

Loading…

Volgende Passages (komende 24 uur)

TLE

VersSource: CelesTrak SupGP

Epoch: Sep 14, 2026, 21:30 UTC

1 65836C 25221P   26257.89631944  .00071421  00000+0  21124-2 0  2579
2 65836  53.1572 287.5898 0001139  87.5669  95.2273 15.34322181    14

Volg STARLINK-35356 in realtime met AllMySat

Download on the App Store